When you browse on this site, cookies collect data to enhance your experience and personalize the content and advertising you see.
Visit our Privacy Policy to learn more. By continuing to use the site, you agree to this use of cookies and data.
  • In Romania
  • List of Countries
  • For 7 days
  • Water Temperature
  • Satellite Maps
  • Weather Map
  • Weather Widgets
  • user-avatar
    Login

    Hourly Weather Worcester

    Today, 18 April, Thursday

    Time Temperature Precipitation Wind Pressure Humidity
    00:00 +9°C° 0 mm 2 mps 762 mmHg 95%
    01:00 +8°C° 0 mm 2 mps 762 mmHg 95%
    02:00 +8°C° 0 mm 3 mps 762 mmHg 95%
    03:00 +7°C° 0 mm 3 mps 762 mmHg 95%
    04:00 +7°C° 0 mm 3 mps 762 mmHg 95%
    05:00 +7°C° 0 mm 3 mps 762 mmHg 95%
    06:00 +7°C° 0 mm 2 mps 763 mmHg 94%
    07:00 +9°C° 0 mm 3 mps 763 mmHg 90%
    08:00 +10°C° 0 mm 4 mps 763 mmHg 86%
    09:00 +12°C° 0 mm 4 mps 763 mmHg 82%
    10:00 +14°C° 0 mm 5 mps 763 mmHg 78%
    11:00 +15°C° 0 mm 5 mps 763 mmHg 74%
    12:00 +17°C° 0 mm 5 mps 763 mmHg 70%
    13:00 +17°C° 0 mm 5 mps 763 mmHg 69%
    14:00 +19°C° 0 mm 5 mps 763 mmHg 67%
    15:00 +19°C° 0 mm 5 mps 763 mmHg 66%
    16:00 +19°C° 0 mm 4 mps 763 mmHg 70%
    17:00 +18°C° 0 mm 4 mps 763 mmHg 74%
    18:00 +17°C° 0 mm 3 mps 764 mmHg 78%
    19:00 +16°C° 0 mm 3 mps 764 mmHg 78%
    20:00 +13°C° 0 mm 3 mps 765 mmHg 79%
    21:00 +12°C° 0 mm 3 mps 765 mmHg 80%
    22:00 +11°C° 0 mm 3 mps 766 mmHg 82%
    23:00 +10°C° 0 mm 3 mps 766 mmHg 85%

    Tomorrow, 19 April, Friday

    Time Temperature Precipitation Wind Pressure Humidity
    00:00 +10°C° 0 mm 3 mps 766 mmHg 87%
    01:00 +9°C° 0 mm 3 mps 766 mmHg 88%
    02:00 +9°C° 0 mm 3 mps 766 mmHg 89%
    03:00 +8°C° 0 mm 3 mps 766 mmHg 90%
    04:00 +8°C° 0 mm 3 mps 766 mmHg 90%
    05:00 +8°C° 0 mm 3 mps 767 mmHg 91%
    06:00 +8°C° 0 mm 2 mps 767 mmHg 91%
    07:00 +10°C° 0 mm 3 mps 767 mmHg 87%
    08:00 +12°C° 0 mm 3 mps 768 mmHg 82%
    09:00 +14°C° 0 mm 3 mps 768 mmHg 78%
    10:00 +17°C° 0 mm 3 mps 768 mmHg 74%
    11:00 +18°C° 0 mm 4 mps 768 mmHg 69%
    12:00 +20°C° 0 mm 4 mps 768 mmHg 65%
    13:00 +20°C° 0 mm 4 mps 768 mmHg 64%
    14:00 +20°C° 0 mm 3 mps 768 mmHg 64%
    15:00 +21°C° 0 mm 3 mps 768 mmHg 64%
    16:00 +20°C° 0 mm 3 mps 768 mmHg 67%
    17:00 +19°C° 0 mm 2 mps 768 mmHg 71%
    18:00 +19°C° 0 mm 2 mps 768 mmHg 75%
    19:00 +17°C° 0 mm 2 mps 768 mmHg 79%
    20:00 +15°C° 0 mm 2 mps 769 mmHg 83%
    21:00 +13°C° 0 mm 2 mps 770 mmHg 87%
    22:00 +13°C° 0 mm 2 mps 769 mmHg 88%
    23:00 +12°C° 0 mm 2 mps 769 mmHg 89%

    Day after tomorrow, 20 April, Saturday

    Time Temperature Precipitation Wind Pressure Humidity
    00:00 +10°C° 0 mm 2 mps 769 mmHg 90%
    01:00 +9°C° 0 mm 2 mps 769 mmHg 90%
    02:00 +9°C° 0 mm 2 mps 769 mmHg 90%
    03:00 +9°C° 0 mm 1 mps 769 mmHg 90%
    04:00 +8°C° 0 mm 2 mps 769 mmHg 90%
    05:00 +8°C° 0 mm 2 mps 769 mmHg 90%
    06:00 +8°C° 0 mm 2 mps 769 mmHg 90%
    07:00 +10°C° 0 mm 2 mps 769 mmHg 85%
    08:00 +13°C° 0 mm 2 mps 769 mmHg 80%
    09:00 +16°C° 0 mm 2 mps 769 mmHg 75%
    10:00 +17°C° 0 mm 2 mps 769 mmHg 71%
    11:00 +19°C° 0 mm 2 mps 769 mmHg 66%
    12:00 +20°C° 0 mm 2 mps 768 mmHg 62%
    13:00 +20°C° 0 mm 2 mps 768 mmHg 60%
    14:00 +21°C° 0 mm 2 mps 768 mmHg 58%
    15:00 +21°C° 0 mm 2 mps 767 mmHg 56%
    16:00 +20°C° 0 mm 2 mps 767 mmHg 61%
    17:00 +21°C° 0 mm 1 mps 767 mmHg 65%
    18:00 +20°C° 0 mm 1 mps 767 mmHg 70%
    19:00 +18°C° 0 mm 1 mps 767 mmHg 74%
    20:00 +15°C° 0 mm 2 mps 767 mmHg 78%
    21:00 +14°C° 0 mm 2 mps 767 mmHg 83%
    22:00 +13°C° 0 mm 2 mps 767 mmHg 85%
    23:00 +12°C° 0 mm 2 mps 766 mmHg 88%

    21 April, Sunday

    Time Temperature Precipitation Wind Pressure Humidity
    00:00 +11°C° 0 mm 1 mps 766 mmHg 90%
    01:00 +11°C° 0 mm 1 mps 766 mmHg 90%
    02:00 +10°C° 0 mm 1 mps 765 mmHg 90%
    03:00 +10°C° 0 mm 1 mps 765 mmHg 91%
    04:00 +10°C° 0 mm 1 mps 765 mmHg 90%
    05:00 +10°C° 0 mm 1 mps 764 mmHg 90%
    06:00 +10°C° 0 mm 1 mps 764 mmHg 89%
    07:00 +12°C° 0 mm 1 mps 764 mmHg 83%
    08:00 +14°C° 0 mm 1 mps 763 mmHg 77%
    09:00 +16°C° 0 mm 1 mps 763 mmHg 70%
    10:00 +18°C° 0 mm 1 mps 763 mmHg 66%
    11:00 +18°C° 0 mm 2 mps 762 mmHg 61%
    12:00 +19°C° 0 mm 2 mps 762 mmHg 56%
    13:00 +20°C° 0 mm 2 mps 761 mmHg 56%
    14:00 +20°C° 0 mm 2 mps 760 mmHg 55%
    15:00 +20°C° 0 mm 2 mps 760 mmHg 55%
    16:00 +20°C° 0 mm 2 mps 759 mmHg 60%
    17:00 +20°C° 0 mm 1 mps 759 mmHg 65%
    18:00 +20°C° 0 mm 1 mps 758 mmHg 71%
    19:00 +18°C° 0 mm 1 mps 758 mmHg 73%
    20:00 +15°C° 0 mm 1 mps 758 mmHg 75%
    21:00 +14°C° 0 mm 2 mps 758 mmHg 78%
    22:00 +13°C° 0 mm 2 mps 758 mmHg 80%
    23:00 +12°C° 0 mm 2 mps 757 mmHg 83%

    22 April, Monday

    Time Temperature Precipitation Wind Pressure Humidity
    00:00 +12°C° 0 mm 2 mps 757 mmHg 85%
    01:00 +10°C° 0 mm 2 mps 756 mmHg 88%
    02:00 +10°C° 0 mm 2 mps 756 mmHg 90%
    03:00 +9°C° 0 mm 2 mps 755 mmHg 92%
    04:00 +9°C° 0 mm 2 mps 755 mmHg 92%
    05:00 +9°C° 0 mm 2 mps 755 mmHg 91%
    06:00 +9°C° 0 mm 2 mps 755 mmHg 90%
    07:00 +12°C° 0 mm 2 mps 755 mmHg 85%
    08:00 +14°C° 0 mm 2 mps 754 mmHg 80%
    09:00 +16°C° 0 mm 3 mps 754 mmHg 75%
    10:00 +17°C° 0 mm 3 mps 754 mmHg 71%
    11:00 +19°C° 0 mm 4 mps 754 mmHg 67%
    12:00 +20°C° 0 mm 4 mps 753 mmHg 62%
    13:00 +20°C° 0 mm 4 mps 753 mmHg 61%
    14:00 +20°C° 0 mm 4 mps 752 mmHg 61%
    15:00 +21°C° 0 mm 4 mps 752 mmHg 60%
    16:00 +20°C° 0 mm 4 mps 752 mmHg 64%
    17:00 +19°C° 0 mm 4 mps 752 mmHg 68%
    18:00 +18°C° 0 mm 3 mps 752 mmHg 73%
    19:00 +16°C° 0 mm 3 mps 752 mmHg 75%
    20:00 +14°C° 0 mm 3 mps 752 mmHg 78%
    21:00 +12°C° 0 mm 3 mps 752 mmHg 80%
    22:00 +11°C° 0 mm 3 mps 752 mmHg 82%
    23:00 +10°C° 0 mm 3 mps 752 mmHg 85%

    23 April, Tuesday

    Time Temperature Precipitation Wind Pressure Humidity
    00:00 +9°C° 0 mm 3 mps 752 mmHg 88%
    01:00 +9°C° 0 mm 3 mps 751 mmHg 89%
    02:00 +8°C° 0 mm 3 mps 751 mmHg 90%
    03:00 +8°C° 0 mm 3 mps 751 mmHg 91%
    04:00 +8°C° 0 mm 3 mps 751 mmHg 90%
    05:00 +8°C° 0 mm 3 mps 751 mmHg 90%
    06:00 +8°C° 0 mm 3 mps 751 mmHg 90%
    07:00 +10°C° 0 mm 3 mps 751 mmHg 86%
    08:00 +12°C° 0 mm 4 mps 751 mmHg 82%
    09:00 +14°C° 0 mm 4 mps 751 mmHg 78%
    10:00 +16°C° 0 mm 5 mps 751 mmHg 74%
    11:00 +17°C° 0 mm 5 mps 751 mmHg 70%
    12:00 +19°C° 0 mm 6 mps 751 mmHg 65%
    13:00 +19°C° 0.1 mm 5 mps 751 mmHg 66%
    14:00 +20°C° 0.1 mm 5 mps 751 mmHg 67%
    15:00 +20°C° 0.1 mm 5 mps 750 mmHg 68%
    16:00 +19°C° 0.2 mm 4 mps 751 mmHg 72%
    17:00 +18°C° 0.2 mm 4 mps 751 mmHg 76%
    18:00 +17°C° 0.2 mm 4 mps 751 mmHg 81%
    19:00 +14°C° 0 mm 4 mps 752 mmHg 83%
    20:00 +13°C° 0 mm 4 mps 752 mmHg 85%
    21:00 +11°C° 0 mm 4 mps 753 mmHg 87%
    22:00 +10°C° 0 mm 3 mps 753 mmHg 87%
    23:00 +9°C° 0 mm 3 mps 753 mmHg 87%
    Show more